| time (UTC) | temp C | wind direction | speed KPH | gust KPH | rain 1hr cm | rain 24hr cm | rain mn cm | humidity % | barometer mb |
| 20260508073412 | 10 | 231 | 0.0 | 4.8 | 0.00 | 0.00 | 0.00 | 82 | 1016.0 |
| 20260508071811 | 9 | 230 | 0.0 | 3.2 | 0.00 | 0.00 | 0.00 | 87 | 1015.9 |
| 20260508063410 | 8 | 230 | 0.0 | 0.0 | 0.00 | 0.00 | 0.00 | 90 | 1015.6 |
| 20260508060409 | 8 | 230 | 0.0 | 0.0 | 0.00 | 0.00 | 0.00 | 91 | 1015.4 |
| 20260508054801 | 7 | 230 | 0.0 | 0.0 | 0.00 | 0.00 | 0.00 | 92 | 1015.3 |
| 20260508050406 | 6 | 230 | 0.0 | 0.0 | 0.00 | 0.00 | 0.00 | 92 | 1015.2 |
| 20260508043406 | 6 | 230 | 0.0 | 0.0 | 0.00 | 0.00 | 0.00 | 91 | 1015.1 |
| 20260508040404 | 6 | 230 | 0.0 | 3.2 | 0.00 | 0.00 | 0.00 | 91 | 1015.1 |
| 20260508033404 | 6 | 230 | 0.0 | 3.2 | 0.00 | 0.00 | 0.00 | 90 | 1015.0 |
| 20260508030407 | 6 | 230 | 0.0 | 1.6 | 0.00 | 0.00 | 0.00 | 89 | 1015.0 |
| 20260508023407 | 6 | 230 | 0.0 | 3.2 | 0.00 | 0.00 | 0.00 | 88 | 1015.0 |
| 20260508021754 | 7 | 230 | 0.0 | 4.8 | 0.00 | 0.00 | 0.00 | 86 | 1014.9 |
| 20260508014751 | 7 | 231 | 0.0 | 4.8 | 0.00 | 0.00 | 0.00 | 86 | 1014.8 |
| 20260508010404 | 7 | 230 | 0.0 | 3.2 | 0.00 | 0.00 | 0.00 | 85 | 1014.9 |
| 20260508003404 | 8 | 230 | 1.6 | 3.2 | 0.00 | 0.00 | 0.00 | 83 | 1014.9 |
| 20260508000405 | 9 | 230 | 0.0 | 4.8 | 0.00 | 0.00 | 0.00 | 81 | 1015.0 |
| 20260507234734 | 9 | 234 | 0.0 | 1.6 | 0.00 | 0.00 | 0.00 | 81 | 1015.0 |
| 20260507230402 | 10 | 234 | 0.0 | 4.8 | 0.00 | 0.00 | 0.00 | 80 | 1014.9 |
| 20260507223402 | 10 | 204 | 0.0 | 4.8 | 0.00 | 0.00 | 0.00 | 81 | 1014.9 |
| 20260507221738 | 10 | 204 | 0.0 | 1.6 | 0.00 | 0.00 | 0.00 | 80 | 1014.8 |
| 20260507214741 | 10 | 204 | 1.6 | 3.2 | 0.00 | 0.00 | 0.00 | 80 | 1014.9 |
| 20260507210402 | 10 | 204 | 0.0 | 3.2 | 0.00 | 0.00 | 0.00 | 79 | 1014.7 |
| 20260507203404 | 11 | 204 | 0.0 | 3.2 | 0.00 | 0.00 | 0.00 | 76 | 1014.6 |
| 20260507201744 | 11 | 205 | 1.6 | 6.4 | 0.00 | 0.00 | 0.00 | 71 | 1014.5 |
| 20260507193401 | 11 | 193 | 0.0 | 6.4 | 0.00 | 0.00 | 0.00 | 69 | 1014.2 |
| 20260507190400 | 12 | 191 | 1.6 | 9.7 | 0.00 | 0.00 | 0.00 | 67 | 1014.0 |
| 20260507184750 | 12 | 144 | 1.6 | 8.0 | 0.00 | 0.00 | 0.00 | 65 | 1013.9 |
| 20260507180359 | 12 | 136 | 1.6 | 9.7 | 0.00 | 0.00 | 0.00 | 62 | 1013.7 |
| 20260507173401 | 13 | 148 | 1.6 | 9.7 | 0.00 | 0.00 | 0.00 | 60 | 1013.7 |
| 20260507171751 | 13 | 190 | 3.2 | 9.7 | 0.00 | 0.00 | 0.00 | 58 | 1013.7 |
| 20260507163356 | 14 | 157 | 4.8 | 14.5 | 0.00 | 0.00 | 0.00 | 58 | 1013.6 |
| 20260507160357 | 13 | 139 | 3.2 | 14.5 | 0.00 | 0.00 | 0.00 | 56 | 1013.7 |
| 20260507153352 | 13 | 78 | 3.2 | 11.3 | 0.00 | 0.00 | 0.00 | 59 | 1013.8 |
| 20260507150352 | 13 | 148 | 3.2 | 12.9 | 0.00 | 0.00 | 0.00 | 59 | 1014.0 |
| 20260507143351 | 13 | 200 | 3.2 | 14.5 | 0.00 | 0.00 | 0.00 | 60 | 1014.2 |
| 20260507133352 | 13 | 226 | 1.6 | 11.3 | 0.00 | 0.00 | 0.00 | 60 | 1014.5 |
| 20260507130351 | 13 | 109 | 3.2 | 16.1 | 0.00 | 0.00 | 0.00 | 61 | 1014.6 |
| 20260507123352 | 13 | 113 | 3.2 | 12.9 | 0.00 | 0.00 | 0.00 | 63 | 1014.7 |
| 20260507120351 | 12 | 186 | 4.8 | 14.5 | 0.00 | 0.00 | 0.00 | 65 | 1014.9 |
| 20260507113351 | 12 | 124 | 4.8 | 12.9 | 0.00 | 0.00 | 0.00 | 67 | 1015.0 |
| 20260507110404 | 11 | 192 | 3.2 | 12.9 | 0.00 | 0.00 | 0.00 | 68 | 1015.1 |
| 20260507103351 | 11 | 88 | 3.2 | 12.9 | 0.00 | 0.00 | 0.00 | 71 | 1015.3 |
| 20260507101726 | 10 | 132 | 3.2 | 9.7 | 0.00 | 0.00 | 0.00 | 78 | 1015.2 |
| 20260507093348 | 9 | 209 | 3.2 | 11.3 | 0.00 | 0.00 | 0.00 | 82 | 1015.2 |
| 20260507090347 | 8 | 106 | 3.2 | 14.5 | 0.00 | 0.00 | 0.00 | 84 | 1015.2 |
| 20260507083347 | 7 | 76 | 1.6 | 11.3 | 0.00 | 0.00 | 0.00 | 86 | 1015.2 |